CW9669 Weather Reports


Display with metric or nautical units.
time (UTC)temp
F
wind
direction
speed
MPH
gust
MPH
rain 1hr
in
rain 24hr
in
rain mn
in
humidity
%
barometer
mb
20260504213518 66 243 1.0 4.0 0.00 0.00 0.00 66 1012.3
20260504212511 65 277 1.0 5.0 0.00 0.00 0.00 69 1012.3
20260504211519 64 204 1.0 4.0 0.00 0.00 0.00 69 1012.4
20260504210510 64 146 1.0 3.0 0.00 0.00 0.00 69 1012.5
20260504205510 63 291 1.0 3.0 0.00 0.00 0.00 71 1012.5
20260504204509 63 283 1.0 3.0 0.00 0.00 0.00 71 1012.6
20260504203507 62 202 1.0 5.0 0.00 0.00 0.00 73 1012.6
20260504202519 62 307 1.0 4.0 0.00 0.00 0.00 73 1012.6
20260504201506 62 287 1.0 2.0 0.00 0.00 0.00 72 1012.6
20260504200511 62 298 0.0 3.0 0.00 0.00 0.00 72 1012.7
20260504195506 62 279 1.0 4.0 0.00 0.00 0.00 74 1012.6
20260504194507 61 29 0.0 3.0 0.00 0.00 0.00 73 1012.7
20260504193952 61 296 1.0 4.0 0.00 0.00 0.00 74 1012.6
20260504192943 61 151 1.0 6.0 0.00 0.00 0.00 74 1012.7
20260504191507 61 290 0.0 3.0 0.00 0.00 0.00 75 1012.7
20260504190506 60 254 0.0 2.0 0.00 0.00 0.00 76 1012.8
20260504185503 59 279 0.0 2.0 0.00 0.00 0.00 76 1013.0
20260504184504 59 306 0.0 3.0 0.00 0.00 0.00 77 1013.1
20260504184424 59 289 1.0 4.0 0.00 0.00 0.00 78 1013.1
20260504182503 59 234 1.0 2.0 0.00 0.00 0.00 77 1013.1
20260504181502 59 221 1.0 4.0 0.00 0.00 0.00 77 1013.1
20260504180506 58 135 0.0 2.0 0.00 0.00 0.00 78 1013.1
20260504175504 58 273 1.0 2.0 0.00 0.00 0.00 79 1013.1
20260504174504 58 249 0.0 2.0 0.00 0.00 0.00 80 1013.1
20260504173505 57 290 1.0 3.0 0.00 0.00 0.00 79 1013.2
20260504172959 57 292 1.0 3.0 0.00 0.00 0.00 81 1013.1
20260504171947 57 290 0.0 1.0 0.00 0.00 0.00 81 1013.2
20260504170503 57 300 0.0 2.0 0.00 0.00 0.00 81 1013.2
20260504150453 54 286 0.0 3.0 0.00 0.01 0.00 85 1012.7
20260504140448 54 205 0.0 3.0 0.00 0.01 0.00 86 1012.3
20260504110439 54 192 1.0 5.0 0.00 0.01 0.00 85 1011.5
20260504100439 55 311 1.0 3.0 0.00 0.01 0.00 85 1011.3
20260504081427 57 275 0.0 3.0 0.00 0.01 0.00 80 1010.2
20260504080427 57 292 1.0 3.0 0.00 0.01 0.00 80 1010.2
20260504050423 69 250 0.0 5.0 0.00 0.01 0.01 60 1007.9
20260504045419 70 278 0.0 3.0 0.00 0.01 0.01 60 1007.7
20260504044420 71 257 1.0 4.0 0.00 0.01 0.01 59 1007.6
20260504043419 72 272 1.0 6.0 0.00 0.01 0.01 59 1007.4
20260504042419 73 294 0.0 7.0 0.00 0.01 0.01 59 1007.3
20260504042345 74 251 0.0 3.0 0.00 0.01 0.01 59 1006.9
20260504040416 74 9 1.0 3.0 0.00 0.01 0.01 60 1006.5
20260504035416 73 276 0.0 3.0 0.00 0.01 0.01 61 1006.3
20260504034855 74 292 0.0 0.0 0.00 0.01 0.01 57 1006.2
20260504033419 75 292 0.0 0.0 0.00 0.01 0.01 58 1006.0
20260504032416 75 292 0.0 0.0 0.00 0.01 0.01 61 1005.8
20260504031418 77 292 0.0 0.0 0.00 0.01 0.01 58 1005.6
20260504030416 78 292 0.0 0.0 0.00 0.01 0.01 56 1005.6
20260504025412 79 292 0.0 0.0 0.00 0.01 0.01 54 1005.6
20260504024857 80 292 0.0 0.0 0.00 0.01 0.01 52 1005.5
20260504023412 81 292 0.0 0.0 0.00 0.01 0.01 50 1005.5
20260504022412 81 292 0.0 0.0 0.00 0.01 0.01 49 1005.4
20260504021411 82 292 0.0 1.0 0.00 0.01 0.01 49 1005.6
20260504020411 83 292 0.0 1.0 0.00 0.01 0.01 45 1005.5
20260504015410 84 295 1.0 3.0 0.00 0.01 0.01 44 1005.6
20260504014412 84 9 2.0 4.0 0.00 0.01 0.01 43 1005.7
20260504013412 85 296 3.0 5.0 0.00 0.01 0.01 43 1005.6
20260504012409 85 299 3.0 6.0 0.00 0.01 0.01 41 1005.6
20260504011409 85 32 3.0 9.0 0.00 0.01 0.01 42 1005.7
20260504010409 85 301 4.0 9.0 0.00 0.01 0.01 40 1005.6
20260504005409 85 296 3.0 7.0 0.00 0.01 0.01 39 1005.6
20260504004852 85 294 4.0 9.0 0.00 0.01 0.01 37 1005.5
20260504003416 85 349 4.0 10.0 0.00 0.01 0.01 37 1005.6
20260504002410 85 20 5.0 10.0 0.00 0.01 0.01 34 1005.7
20260504001409 85 309 5.0 14.0 0.00 0.01 0.01 34 1005.6
20260504000409 85 290 5.0 11.0 0.00 0.01 0.01 33 1005.6
20260503235410 85 316 5.0 10.0 0.00 0.01 0.01 36 1005.6
20260503234409 85 324 5.0 10.0 0.00 0.01 0.01 37 1005.7
20260503233409 84 40 6.0 14.0 0.00 0.01 0.01 37 1005.7
20260503232410 84 43 6.0 12.0 0.00 0.01 0.01 38 1005.7
20260503231410 84 297 6.0 14.0 0.00 0.01 0.01 37 1005.9
20260503230411 83 13 6.0 13.0 0.00 0.01 0.01 36 1006.1
20260503225410 83 307 5.0 12.0 0.00 0.01 0.01 37 1006.2
20260503224408 83 318 5.0 11.0 0.00 0.01 0.01 37 1006.5
20260503223409 82 265 6.0 11.0 0.00 0.01 0.01 43 1006.5
20260503222409 82 303 5.0 12.0 0.00 0.01 0.01 47 1006.6
20260503221409 82 299 4.0 10.0 0.00 0.01 0.01 51 1006.9
20260503220410 81 302 4.0 10.0 0.00 0.01 0.01 53 1007.1
20260503215418 81 294 4.0 10.0 0.00 0.01 0.01 55 1007.4
20260503214412 80 306 3.0 8.0 0.00 0.01 0.01 52 1007.5